Regional Weather Roundup
Issued by NWS

Home | Current Version | Previous Version | Text Only | Print | Product List | Glossary Off
Versions: 1 2 3 4 5 6 7 8 9 10 11 12 13 14 15 16 17 18 19 20 21 22 23 24 25 26 27 28 29 30 31 32 33 34 35 36 37 38 39 40 41 42 43 44 45 46 47 48 49 50

149
ASUS44 KMEG 231100
RWRTN
TENNESSEE HOURLY STATE WEATHER ROUNDUP
NATIONAL WEATHER SERVICE MEMPHIS TN
600 AM CDT MON OCT 23 2017

TNZ002-004-019-021-049-052-054-088>092-231200-
WEST TENNESSEE

CITY           SKY/WX    TMP DP  RH WIND       PRES   REMARKS
MEMPHIS INTL   CLOUDY    53  52  96 NW7       29.97R
NWS MEMPHIS      N/A     53 N/A N/A MISG        N/A
JACKSON        CLOUDY    54  54 100 W9        29.92S
DYERSBURG        N/A     53  52  96 NW9       29.93S FOG
$$

TNZ008-025-027-028-033-062-065-066-231200-
NORTH MIDDLE TENNESSEE

CITY           SKY/WX    TMP DP  RH WIND       PRES   REMARKS
NASHVILLE      LGT RAIN  62  60  93 SW3       29.84F
CLARKSVILLE    CLOUDY    58  55  90 W13       29.83F
SMYRNA         RAIN      61  60  97 CALM      29.85R FOG
CROSSVILLE     LGT RAIN  65  61  87 SE10G23   29.87F
$$

TNZ061-075-076-078-094-096-097-231200-
SOUTH MIDDLE TENNESSEE

CITY           SKY/WX    TMP DP  RH WIND       PRES   REMARKS
$$

TNZ017-018-042-046-047-231200-
NORTHEAST TENNESSEE

CITY           SKY/WX    TMP DP  RH WIND       PRES   REMARKS
TRI CITIES     LGT RAIN  63  62  97 NE3       30.01F FOG
$$

TNZ012-013-036-069-073-074-231200-
CENTRAL EAST TENNESSEE

CITY           SKY/WX    TMP DP  RH WIND       PRES   REMARKS
KNOXVILLE      CLOUDY    63  63 100 NE6       29.88F
OAK RIDGE      LGT RAIN  61  61 100 CALM      29.91F
$$

TNZ083-085-099-231200-
SOUTHEAST TENNESSEE

CITY           SKY/WX    TMP DP  RH WIND       PRES   REMARKS
CHATTANOOGA    LGT RAIN  68  65  90 SE9       29.84F FOG
$$

SKY/WX REPORTED AS FAIR MEANS FEW OR NO CLOUDS BELOW
12 THOUSAND FEET.





USA.gov is the U.S. government's official web portal to all federal, state and local government web resources and services.